Regional Weather Roundup
Issued by NWS

Home | Current Version | Previous Version | Text Only | Print | Product List | Glossary Off
Versions: 1 2 3 4 5 6 7 8 9 10 11 12 13 14 15 16 17 18 19 20 21 22 23 24 25 26 27 28 29 30 31 32 33 34 35 36 37 38 39 40 41 42 43 44 45 46 47 48 49 50

000
ASUS43 KMKX 281021
RWRWI

WISCONSIN REGIONAL WEATHER ROUNDUP
NATIONAL WEATHER SERVICE MILWAUKEE/SULLIVAN WI
500 AM CDT FRI AUG 28 2015

NOTE: "FAIR" INDICATES FEW OR NO CLOUDS BELOW 12,000 FEET WITH NO
SIGNIFICANT WEATHER AND/OR OBSTRUCTIONS TO VISIBILITY.

WIZ001-002-006>008-014>016-023>028-281100-
NORTHWEST WISCONSIN

CITY           SKY/WX    TMP DP  RH WIND       PRES   REMARKS
SUPERIOR ARPT  CLOUDY    51  51  97 CALM      29.98S
ASHLAND        CLOUDY    63  60  90 S9        29.99S
HAYWARD        PTCLDY    61  57  87 S8        30.02S
SIREN          CLEAR     62  58  88 S9        30.00S
CUMBERLAND     MOCLDY    55  54  94 CALM      30.02S
RICE LAKE      MOCLDY    58  55  92 CALM      30.04S
CHETEK         MOCLDY   N/A N/A N/A SE6       30.03S
LADYSMITH      PTCLDY    59  58  94 S3        30.06R
EAU CLAIRE     CLOUDY    62  58  86 S6        30.03S
MENOMONIE      CLOUDY    59  58  95 E5        30.02F
NEW RICHMOND   MOCLDY    60  59  96 SE3       30.01S
OSCEOLA        MOCLDY    59  59 100 CALM      30.03S
$$

WIZ003>005-009-010-017-018-281100-
NORTH CENTRAL WISCONSIN

CITY           SKY/WX    TMP DP  RH WIND       PRES   REMARKS
MANITOWISH WTR CLOUDY    58  58 100 S3        30.05S
ARBOR VITAE    MOCLDY    60  58  92 SW5       30.06S
WOODRUFF       MOCLDY    60  58  92 SW5       30.06S
RHINELANDER    CLOUDY    60  57  89 SW8       30.08R
EAGLE RIVER    PTCLDY    58  57  97 CALM      30.06R
LAND O LAKES   MOCLDY    58  56  96 CALM      30.07R
PHILLIPS       PTCLDY    58  57  97 S5        30.04F
TOMAHAWK       MOCLDY    56  55  95 CALM      30.08R
MEDFORD        MOCLDY    58  57  96 S7        30.07F
MERRILL        MOCLDY    60  59  96 SW6       30.09S
$$

WIZ029-030-035-036-043>047-281100-
CENTRAL WISCONSIN

CITY           SKY/WX    TMP DP  RH WIND       PRES   REMARKS
WAUSAU         CLOUDY    61  58  90 SW6       30.08R
MOSINEE        MOCLDY    59  59 100 S8        30.10R
MARSHFIELD     CLOUDY    58  54  86 S6        30.08S
STEVENS POINT  MOCLDY    57  55  94 S6        30.10S
WAUPACA        MOCLDY    58  57  97 CALM      30.10R
WAUTOMA        MOCLDY    53  53 100 CALM      30.11R
WISC RAPIDS    LGT RAIN  59  55  87 S3        30.11R
CAMP DOUGLAS   CLOUDY    58  58 100 VRB3      30.08S
$$

WIZ011>013-019>022-031-037>040-048>050-281100-
NORTHEAST WISCONSIN

CITY           SKY/WX    TMP DP  RH WIND       PRES   REMARKS
ANTIGO         PTCLDY    56  56  98 SW7       30.09R
SHAWANO        PTCLDY    60  57  92 CALM      30.09S
OCONTO         PTCLDY    55  55 100 CALM      30.08S
STURGEON BAY   PTCLDY    55  52  88 S8        30.11S
GREEN BAY      PTCLDY    57  54  89 S6        30.10R
MANITOWOC      PTCLDY    54  51  90 MISG      30.11S
APPLETON       MOCLDY    55  54  94 S7        30.09R
CLINTONVILLE   MOCLDY    55  55 100 SW3       30.10R
OSHKOSH        PTCLDY    57  52  83 S6        30.10R
$$

WIZ032>034-041-042-053>061-281100-
SOUTHWEST WISCONSIN

CITY           SKY/WX    TMP DP  RH WIND       PRES   REMARKS
LA CROSSE      CLOUDY    65  60  84 S8        30.05F
SPARTA         CLOUDY    60  57  91 CALM      30.08F
VIROQUA        CLOUDY    60  60 100 S5        30.09F
BOSCOBEL       CLOUDY    59  57  93 CALM      30.09S
PRAIRIE DU CHI CLOUDY    63  58  86 E5        30.07F
PLATTEVILLE    CLOUDY    60  59  97 CALM      30.11R
$$

WIZ056-057-062-063-064-067-068-281100-
SOUTH CENTRAL WISCONSIN

CITY           SKY/WX    TMP DP  RH WIND       PRES   REMARKS
REEDSBURG      MOCLDY    58  56  94 CALM      30.10S
BARABOO/DELLS  MOCLDY    58  55  87 CALM      30.10S
LONE ROCK      CLOUDY    57  55  93 CALM      30.11R
MINERAL POINT  CLOUDY    61  59  94 CALM      30.11S
MADISON        MOCLDY    60  55  83 S5        30.11R
MIDDLETON      MOCLDY    60  56  86 CALM      30.11R
WATERTOWN      CLEAR     52  52 100 CALM      30.10F
MONROE         CLOUDY    59  55  88 S5        30.11R
JANESVILLE     CLOUDY    59  55  88 CALM      30.10S FOG
$$

WIZ051-052-058>065-066-070>072-281100-
SOUTHEAST WISCONSIN

CITY           SKY/WX    TMP DP  RH WIND       PRES   REMARKS
MILWAUKEE      PTCLDY    57  53  86 CALM      30.12S
WAUKESHA       PTCLDY    55  54  94 SW3       30.13S FOG
MILWAUKEE/TIMM PTCLDY    55  52  88 S3        30.12S
RACINE         CLEAR     60  56  86 S5        30.13S
BURLINGTON     PTCLDY    47  46  99 CALM      30.12S FOG
KENOSHA        CLEAR     55  54  96 S3        30.11F FOG
FOND DU LAC    PTCLDY    55  52  89 SW3       30.11R
SHEBOYGAN      PTCLDY    52  51  97 CALM      30.11R
WEST BEND      PTCLDY    54  50  87 CALM      30.11S FOG
JUNEAU         FAIR      54  51  91 CALM      30.12R
$$

LSZ147-162-281100-
LAKE SUPERIOR

STATION/POSITION TIME  TEMP    WIND        PRES    WAVE
                       AIR SEA DIR/SP/G            HT/PER
                 (UTC) (F)     (DEG/KT/KT) (MB)    (FT/S)
W MID LAKE BUOY  0950   57 55  200/  6/  6 1015.3S   0
DEVILS ISLAND    1000   58     210/  4/  5 1015.3F
PORT WING        0940   56      CALM  /  1 1015.2F
SAXON HARBOR     0900   67     200/  4/  9 1015.2
$$

LMZ867-665-643>646-281100-
LAKE MICHIGAN

STATION/POSITION TIME  TEMP    WIND        PRES    WAVE
                       AIR SEA DIR/SP/G            HT/PER
                 (UTC) (F)     (DEG/KT/KT) (MB)    (FT/S)
CHAMBERS ISLAND  0900   60     180/  3/  8 1018.6R
S GREEN BAY BUOY 1000   63     190/ 10/ 14 1020.0S
N MID LAKE BUOY  0950   63 64  210/ 17/ 21 1018.4S   3/ 4
NORTHPORT PIER   1000   60     170/  4/  8 1018.3F
SISTER BAY       0849   61     190/  7/  9   N/A
ALGOMA LAKESHORE 0914          200/  3/  4   N/A
KEWAUNEE LAKESHO 1000   49     160/  2/  3 1018.3S
SHEBOYGAN LAKESH 1000   50     180/  6/  7 1020.0R
PORT WASHINGTON  0900   50     140/  1/  2 1020.3S
ATWATER BUOY     1000   51 47  150/  2/  2 1020.8F
MILWAUKEE LAKESH 1000   55     110/  1/  1   N/A
S MID LAKE BUOY  0950   67 67  170/ 12/ 14 1019.5F   1/ 3
KENOSHA   LAKESH 1000   62     190/  6/  8 1019.3S
$$

TC  - TEMPERATURE IN CELSIUS
VSB - VISIBILITY IN STATUTE MILES
WCI - WIND CHILL INDEX
HX  - HEAT INDEX



USA.gov is the U.S. government's official web portal to all federal, state and local government web resources and services.